Location: ?p Thanh B�nh
(16.5833°N, 107.5333°E)
Time: 05:24:34
(UTC+00:00)

ALOS - Pass Details

Date: 29 October 2020
Orbit: 684 x 685 km, 97.9° (Epoch: 27 November)

Event Time Altitude Azimuth Distance (km) Brightness Sun altitude
Rises 20:39:16 0° 25° (NNE) 3,039 5.8 -30.9°
Reaches altitude 10° 20:41:41 10° 34° (NE) 2,123 5.1 -30.3°
Maximum altitude 20:45:54 34° 100° (E) 1,109 3.8 -29.3°
Drops below altitude 10° 20:50:06 10° 165° (SSE) 2,120 5.0 -28.3°
Sets 20:52:30 0° 174° (S) 3,034 5.8 -27.7°
